BZN191 KDCA-KPWM

Flight info

Callsign BZN191
Flight time 1h 9m
Altitude 41000
Route SOOKI6 SWANN BROSS Q419 RBV Q22 LLUND BDR SCOGS3
Aircraft B736/M-SDE2E3FGHIRWXY/LB1

Departure

Time 2026-05-08 00:30
Airport Ronald Reagan Washington National Airport (KDCA)

Arrival

Time 2026-05-08 01:40
Airport Portland International Jetport (KPWM)
Time Latitude Longitude Altitude Speed Heading
2026-05-07 23:50 38.85648 -77.04301 26 ft 0 kts 172°
2026-05-08 00:19 38.85654 -77.04303 27 ft 4 kts 172°
2026-05-08 00:19 38.85680 -77.04306 26 ft 4 kts 189°
2026-05-08 00:19 38.85702 -77.04294 30 ft 4 kts 238°
2026-05-08 00:19 38.85706 -77.04284 26 ft 2 kts 251°
2026-05-08 00:24 38.85707 -77.04281 26 ft 4 kts 250°
2026-05-08 00:24 38.85720 -77.04231 27 ft 1 kts 261°
2026-05-08 00:24 38.85723 -77.04209 28 ft 5 kts 266°
2026-05-08 00:24 38.85724 -77.04206 28 ft 0 kts 290°
2026-05-08 00:25 38.85724 -77.04207 28 ft 0 kts 294°
2026-05-08 00:25 38.85730 -77.04204 28 ft 1 kts 19°
2026-05-08 00:25 38.85731 -77.04195 28 ft 0 kts 74°
2026-05-08 00:26 38.85732 -77.04189 28 ft 2 kts 75°
2026-05-08 00:26 38.85733 -77.04135 28 ft 8 kts 96°
2026-05-08 00:26 38.85744 -77.04090 28 ft 4 kts 50°
2026-05-08 00:27 38.85745 -77.04089 28 ft 0 kts 47°
2026-05-08 00:27 38.85746 -77.04086 28 ft 0 kts 47°
2026-05-08 00:28 38.85758 -77.04070 28 ft 0 kts 46°
2026-05-08 00:28 38.85781 -77.04056 28 ft 8 kts
2026-05-08 00:28 38.85867 -77.04064 28 ft 13 kts 355°
2026-05-08 00:28 38.85928 -77.04056 28 ft 8 kts 38°
2026-05-08 00:29 38.85974 -77.03997 29 ft 12 kts 20°
2026-05-08 00:29 38.86035 -77.03973 24 ft 0 kts 16°
2026-05-08 00:29 38.86053 -77.03966 24 ft 10 kts 16°
2026-05-08 00:29 38.86086 -77.03886 26 ft 13 kts 124°
2026-05-08 00:30 38.85993 -77.03858 26 ft 22 kts 175°
2026-05-08 00:30 38.85593 -77.03820 24 ft 93 kts 176°
2026-05-08 00:30 38.84753 -77.03740 44 ft 143 kts 176°
2026-05-08 00:30 38.83770 -77.03680 659 ft 135 kts 179°
2026-05-08 00:31 38.82842 -77.03554 1269 ft 135 kts 170°
2026-05-08 00:31 38.81911 -77.03324 1828 ft 141 kts 170°
2026-05-08 00:31 38.80869 -77.03077 2164 ft 172 kts 171°
2026-05-08 00:31 38.79580 -77.02782 2461 ft 204 kts 171°
2026-05-08 00:32 38.78084 -77.02453 2692 ft 231 kts 171°
2026-05-08 00:32 38.76510 -77.01855 3209 ft 245 kts 148°
2026-05-08 00:32 38.75368 -77.00195 3838 ft 261 kts 112°
2026-05-08 00:32 38.75091 -76.97872 4571 ft 269 kts 89°
2026-05-08 00:33 38.75107 -76.95429 5392 ft 277 kts 87°
2026-05-08 00:33 38.75331 -76.92976 6251 ft 280 kts 68°
2026-05-08 00:33 38.76366 -76.90914 7204 ft 276 kts 41°
2026-05-08 00:33 38.77917 -76.89466 8126 ft 278 kts 27°
2026-05-08 00:34 38.79607 -76.88189 9076 ft 285 kts 26°
2026-05-08 00:34 38.81337 -76.86890 10021 ft 292 kts 26°
2026-05-08 00:34 38.83131 -76.85523 10687 ft 311 kts 26°
2026-05-08 00:34 38.85043 -76.84049 11317 ft 328 kts 26°
2026-05-08 00:35 38.87001 -76.82455 12144 ft 340 kts 32°
2026-05-08 00:35 38.88848 -76.80460 12963 ft 353 kts 39°
2026-05-08 00:35 38.90665 -76.78271 13822 ft 362 kts 40°
2026-05-08 00:35 38.92507 -76.76030 14765 ft 368 kts 39°
2026-05-08 00:36 38.94392 -76.73770 15687 ft 374 kts 39°
2026-05-08 00:36 38.96303 -76.71523 16515 ft 382 kts 38°
2026-05-08 00:36 38.98294 -76.69209 17347 ft 389 kts 38°
2026-05-08 00:36 39.00325 -76.66855 18179 ft 396 kts 38°
2026-05-08 00:37 39.02368 -76.64423 19026 ft 404 kts 40°
2026-05-08 00:37 39.04371 -76.61856 19883 ft 409 kts 41°
2026-05-08 00:37 39.06386 -76.59231 20716 ft 414 kts 40°
2026-05-08 00:38 39.10475 -76.53861 22272 ft 430 kts 47°
2026-05-08 00:38 39.11965 -76.50474 23027 ft 441 kts 70°
2026-05-08 00:38 39.12629 -76.46590 23790 ft 446 kts 83°
2026-05-08 00:38 39.13043 -76.42604 24472 ft 453 kts 84°
2026-05-08 00:39 39.13430 -76.38551 25158 ft 459 kts 84°
2026-05-08 00:39 39.13838 -76.34445 25826 ft 465 kts 84°
2026-05-08 00:39 39.14279 -76.30281 26463 ft 472 kts 83°
2026-05-08 00:39 39.14743 -76.26074 27067 ft 478 kts 83°
2026-05-08 00:40 39.15220 -76.21799 27677 ft 484 kts 83°
2026-05-08 00:40 39.15709 -76.17541 28279 ft 489 kts 82°
2026-05-08 00:40 39.16219 -76.13187 28847 ft 494 kts 82°
2026-05-08 00:40 39.16733 -76.08778 29386 ft 500 kts 82°
2026-05-08 00:41 39.17249 -76.04319 29906 ft 506 kts 82°
2026-05-08 00:41 39.17774 -75.99756 30401 ft 511 kts 82°
2026-05-08 00:41 39.18303 -75.95253 30867 ft 517 kts 79°
2026-05-08 00:41 39.19315 -75.90799 31285 ft 520 kts 63°
2026-05-08 00:42 39.21039 -75.86718 31745 ft 516 kts 50°
2026-05-08 00:42 39.23312 -75.83191 32184 ft 507 kts 35°
2026-05-08 00:42 39.25979 -75.80250 32674 ft 503 kts 30°
2026-05-08 00:42 39.28700 -75.77398 33102 ft 505 kts 30°
2026-05-08 00:43 39.31440 -75.74517 33456 ft 511 kts 30°
2026-05-08 00:43 39.34183 -75.71575 33856 ft 514 kts 31°
2026-05-08 00:43 39.36914 -75.68588 34344 ft 514 kts 31°
2026-05-08 00:43 39.39631 -75.65587 34842 ft 513 kts 31°
2026-05-08 00:44 39.42345 -75.62587 35307 ft 513 kts 31°
2026-05-08 00:44 39.45056 -75.59596 35781 ft 511 kts 31°
2026-05-08 00:44 39.47740 -75.56646 36171 ft 512 kts 31°
2026-05-08 00:44 39.50459 -75.53662 36528 ft 513 kts 31°
2026-05-08 00:45 39.53184 -75.50668 36885 ft 514 kts 32°
2026-05-08 00:45 39.55898 -75.47676 37379 ft 510 kts 32°
2026-05-08 00:45 39.58593 -75.44700 37831 ft 507 kts 32°
2026-05-08 00:45 39.61272 -75.41741 38243 ft 506 kts 32°
2026-05-08 00:46 39.63954 -75.38782 38516 ft 507 kts 32°
2026-05-08 00:46 39.66650 -75.35806 38763 ft 509 kts 32°
2026-05-08 00:46 39.69345 -75.32826 39030 ft 510 kts 32°
2026-05-08 00:46 39.72049 -75.29830 39318 ft 510 kts 32°
2026-05-08 00:47 39.74750 -75.26834 39621 ft 510 kts 32°
2026-05-08 00:47 39.77445 -75.23842 39935 ft 509 kts 32°
2026-05-08 00:47 39.80081 -75.20749 40259 ft 513 kts 39°
2026-05-08 00:47 39.82497 -75.17316 40558 ft 516 kts 43°
2026-05-08 00:48 39.84825 -75.13750 40807 ft 518 kts 44°
2026-05-08 00:48 39.89496 -75.06515 40873 ft 523 kts 43°
2026-05-08 00:49 39.94249 -74.99363 40856 ft 519 kts 43°
2026-05-08 00:49 39.98760 -74.92139 40860 ft 519 kts 51°
2026-05-08 00:50 40.02734 -74.84260 40872 ft 520 kts 54°
2026-05-08 00:50 40.06643 -74.76319 40854 ft 519 kts 53°
2026-05-08 00:51 40.10604 -74.68464 40858 ft 517 kts 52°
2026-05-08 00:51 40.14577 -74.60640 40874 ft 516 kts 52°
2026-05-08 00:52 40.18543 -74.52808 40866 ft 515 kts 51°
2026-05-08 00:52 40.23271 -74.45960 40862 ft 500 kts 32°
2026-05-08 00:53 40.28667 -74.40321 40878 ft 500 kts 31°
2026-05-08 00:53 40.34127 -74.34630 40871 ft 502 kts 31°
2026-05-08 00:54 40.39569 -74.28832 40871 ft 505 kts 32°
2026-05-08 00:54 40.45007 -74.22984 40884 ft 506 kts 32°
2026-05-08 00:55 40.50466 -74.17105 40870 ft 508 kts 32°
2026-05-08 00:55 40.55934 -74.11213 40873 ft 509 kts 32°
2026-05-08 00:56 40.61414 -74.05303 40868 ft 509 kts 32°
2026-05-08 00:56 40.66860 -73.99421 40871 ft 509 kts 32°
2026-05-08 00:57 40.72333 -73.93492 40863 ft 510 kts 32°
2026-05-08 00:57 40.77810 -73.87545 40856 ft 509 kts 33°
2026-05-08 00:58 40.83276 -73.81598 40854 ft 509 kts 33°
2026-05-08 00:58 40.88124 -73.74673 40845 ft 520 kts 54°
2026-05-08 00:59 40.91857 -73.66472 40858 ft 521 kts 57°
2026-05-08 00:59 40.95494 -73.58193 40861 ft 520 kts 57°
2026-05-08 01:00 40.99184 -73.49958 40860 ft 519 kts 57°
2026-05-08 01:00 41.02876 -73.41805 40862 ft 519 kts 57°
2026-05-08 01:01 41.06584 -73.33602 40861 ft 519 kts 57°
2026-05-08 01:01 41.10286 -73.25375 40862 ft 519 kts 57°
2026-05-08 01:02 41.13977 -73.17147 40862 ft 519 kts 57°
2026-05-08 01:02 41.17685 -73.08926 40862 ft 519 kts 56°
2026-05-08 01:03 41.21509 -73.00798 40861 ft 519 kts 55°
2026-05-08 01:03 41.25358 -72.92683 40859 ft 519 kts 55°
2026-05-08 01:04 41.29189 -72.84537 40861 ft 520 kts 56°
2026-05-08 01:04 41.33006 -72.76363 40861 ft 521 kts 56°
2026-05-08 01:05 41.36820 -72.68163 40860 ft 521 kts 56°
2026-05-08 01:05 41.40633 -72.59947 40879 ft 522 kts 56°
2026-05-08 01:06 41.43802 -72.53102 40872 ft 522 kts 56°
2026-05-08 01:06 41.47609 -72.44861 40886 ft 522 kts 56°
2026-05-08 01:07 41.51412 -72.36605 40888 ft 523 kts 57°
2026-05-08 01:07 41.55222 -72.28312 40885 ft 524 kts 57°
2026-05-08 01:08 41.59023 -72.20015 40883 ft 524 kts 57°
2026-05-08 01:08 41.62826 -72.11690 40879 ft 525 kts 57°
2026-05-08 01:09 41.66605 -72.03396 40862 ft 525 kts 57°
2026-05-08 01:09 41.70400 -71.95044 40861 ft 525 kts 57°
2026-05-08 01:10 41.74184 -71.86692 40724 ft 527 kts 57°
2026-05-08 01:10 41.76090 -71.82478 40195 ft 529 kts 57°
2026-05-08 01:10 41.77994 -71.78259 39627 ft 528 kts 58°
2026-05-08 01:10 41.79890 -71.74052 39045 ft 527 kts 58°
2026-05-08 01:11 41.81786 -71.69843 38444 ft 527 kts 58°
2026-05-08 01:11 41.83679 -71.65634 37816 ft 527 kts 58°
2026-05-08 01:11 41.85519 -71.61367 37029 ft 531 kts 62°
2026-05-08 01:11 41.87193 -71.56925 36255 ft 533 kts 65°
2026-05-08 01:12 41.88764 -71.52423 35633 ft 531 kts 67°
2026-05-08 01:12 41.90298 -71.47933 35126 ft 527 kts 67°
2026-05-08 01:12 41.91832 -71.43475 34615 ft 524 kts 67°
2026-05-08 01:12 41.93375 -71.39066 34127 ft 520 kts 67°
2026-05-08 01:13 41.94924 -71.34702 33635 ft 516 kts 66°
2026-05-08 01:13 41.96457 -71.30414 33146 ft 512 kts 66°
2026-05-08 01:13 41.97998 -71.26111 32653 ft 509 kts 66°
2026-05-08 01:13 41.99530 -71.21825 32164 ft 506 kts 67°
2026-05-08 01:14 42.01046 -71.17573 31664 ft 503 kts 67°
2026-05-08 01:14 42.02554 -71.13333 31169 ft 500 kts 67°
2026-05-08 01:14 42.04047 -71.09126 30699 ft 497 kts 67°
2026-05-08 01:14 42.05529 -71.04947 30231 ft 493 kts 68°
2026-05-08 01:15 42.06998 -71.00797 29774 ft 490 kts 68°
2026-05-08 01:15 42.08607 -70.96764 29281 ft 489 kts 54°
2026-05-08 01:15 42.10931 -70.93469 28812 ft 483 kts 36°
2026-05-08 01:15 42.13735 -70.91107 28279 ft 470 kts 17°
2026-05-08 01:16 42.16768 -70.89590 27844 ft 460 kts 11°
2026-05-08 01:16 42.19802 -70.88239 27351 ft 458 kts 10°
2026-05-08 01:16 42.22863 -70.86907 26913 ft 472 kts 10°
2026-05-08 01:16 42.26046 -70.85507 26397 ft 488 kts 11°
2026-05-08 01:17 42.29275 -70.84034 25887 ft 489 kts 11°
2026-05-08 01:17 42.32473 -70.82536 25384 ft 484 kts 12°
2026-05-08 01:17 42.35593 -70.81060 24895 ft 479 kts 11°
2026-05-08 01:17 42.38723 -70.79583 24399 ft 474 kts 11°
2026-05-08 01:18 42.41832 -70.78121 23904 ft 470 kts 11°
2026-05-08 01:18 42.44903 -70.76664 23353 ft 468 kts 12°
2026-05-08 01:18 42.47946 -70.75060 22765 ft 469 kts 15°
2026-05-08 01:18 42.50947 -70.73373 22269 ft 464 kts 15°
2026-05-08 01:19 42.53906 -70.71687 21787 ft 457 kts 15°
2026-05-08 01:19 42.56822 -70.70041 21314 ft 450 kts 15°
2026-05-08 01:19 42.59699 -70.68441 20850 ft 442 kts 15°
2026-05-08 01:19 42.62502 -70.66897 20402 ft 437 kts 14°
2026-05-08 01:20 42.65302 -70.65358 19953 ft 432 kts 14°
2026-05-08 01:20 42.68075 -70.63829 19494 ft 429 kts 15°
2026-05-08 01:20 42.70808 -70.62211 19030 ft 427 kts 18°
2026-05-08 01:20 42.73488 -70.60517 18577 ft 424 kts 19°
2026-05-08 01:21 42.76136 -70.58811 18126 ft 420 kts 19°
2026-05-08 01:21 42.78807 -70.57090 17660 ft 416 kts 19°
2026-05-08 01:21 42.81374 -70.55449 17339 ft 409 kts 19°
2026-05-08 01:21 42.83972 -70.53800 16934 ft 405 kts 18°
2026-05-08 01:22 42.86484 -70.52213 16519 ft 402 kts 19°
2026-05-08 01:22 42.89010 -70.50619 16086 ft 399 kts 18°
2026-05-08 01:22 42.91522 -70.49035 15649 ft 396 kts 18°
2026-05-08 01:22 42.94009 -70.47464 15209 ft 392 kts 19°
2026-05-08 01:23 42.96479 -70.45902 14766 ft 389 kts 19°
2026-05-08 01:23 42.98928 -70.44349 14327 ft 386 kts 19°
2026-05-08 01:23 43.01343 -70.42817 13889 ft 381 kts 19°
2026-05-08 01:23 43.03678 -70.41175 13439 ft 373 kts 25°
2026-05-08 01:24 43.05827 -70.39310 13014 ft 357 kts 28°
2026-05-08 01:24 43.07855 -70.37456 12618 ft 342 kts 28°
2026-05-08 01:24 43.09791 -70.35702 12276 ft 326 kts 27°
2026-05-08 01:24 43.11665 -70.34045 11908 ft 314 kts 26°
2026-05-08 01:25 43.13474 -70.32468 11536 ft 303 kts 26°
2026-05-08 01:25 43.15221 -70.30949 11182 ft 292 kts 26°
2026-05-08 01:25 43.16922 -70.29473 10884 ft 289 kts 26°
2026-05-08 01:25 43.18610 -70.27997 10604 ft 286 kts 27°
2026-05-08 01:26 43.20275 -70.26533 10326 ft 282 kts 27°
2026-05-08 01:26 43.21919 -70.25086 10051 ft 280 kts 27°
2026-05-08 01:26 43.23550 -70.23652 9773 ft 276 kts 28°
2026-05-08 01:26 43.25156 -70.22238 9500 ft 273 kts 28°
2026-05-08 01:27 43.26754 -70.20858 9227 ft 270 kts 28°
2026-05-08 01:27 43.28333 -70.19500 8968 ft 266 kts 28°
2026-05-08 01:27 43.29897 -70.18151 8706 ft 264 kts 28°
2026-05-08 01:27 43.31445 -70.16816 8443 ft 261 kts 28°
2026-05-08 01:28 43.32963 -70.15541 8176 ft 250 kts 26°
2026-05-08 01:28 43.34422 -70.14385 7933 ft 240 kts 26°
2026-05-08 01:28 43.35843 -70.13270 7700 ft 230 kts 25°
2026-05-08 01:28 43.37205 -70.12203 7470 ft 221 kts 25°
2026-05-08 01:29 43.38516 -70.11172 7257 ft 213 kts 25°
2026-05-08 01:29 43.39793 -70.10169 7062 ft 211 kts 25°
2026-05-08 01:29 43.41072 -70.09164 6870 ft 212 kts 25°
2026-05-08 01:29 43.42354 -70.08153 6673 ft 213 kts 25°
2026-05-08 01:30 43.43637 -70.07142 6466 ft 213 kts 25°
2026-05-08 01:30 43.44919 -70.06131 6266 ft 212 kts 25°
2026-05-08 01:30 43.46198 -70.05117 6058 ft 212 kts 25°
2026-05-08 01:30 43.47472 -70.04109 5852 ft 211 kts 25°
2026-05-08 01:31 43.48739 -70.03105 5642 ft 209 kts 25°
2026-05-08 01:31 43.49990 -70.02114 5433 ft 207 kts 25°
2026-05-08 01:31 43.51232 -70.01128 5232 ft 205 kts 25°
2026-05-08 01:31 43.52457 -70.00155 5029 ft 202 kts 25°
2026-05-08 01:32 43.53665 -69.99193 4839 ft 199 kts 24°
2026-05-08 01:32 43.54841 -69.98259 4647 ft 194 kts 24°
2026-05-08 01:32 43.55982 -69.97350 4483 ft 185 kts 24°
2026-05-08 01:32 43.57095 -69.96543 4294 ft 176 kts 10°
2026-05-08 01:33 43.58238 -69.96672 4146 ft 163 kts 330°
2026-05-08 01:33 43.59059 -69.97711 3998 ft 162 kts 303°
2026-05-08 01:33 43.59698 -69.99008 3835 ft 166 kts 303°
2026-05-08 01:33 43.60348 -70.00337 3668 ft 165 kts 303°
2026-05-08 01:34 43.60981 -70.01640 3500 ft 161 kts 303°
2026-05-08 01:34 43.61595 -70.02906 3346 ft 158 kts 303°
2026-05-08 01:34 43.62198 -70.04152 3188 ft 159 kts 303°
2026-05-08 01:34 43.62682 -70.05513 3023 ft 160 kts 283°
2026-05-08 01:35 43.62835 -70.07057 2879 ft 160 kts 278°
2026-05-08 01:35 43.62943 -70.08570 2718 ft 160 kts 277°
2026-05-08 01:35 43.63054 -70.10106 2562 ft 162 kts 279°
2026-05-08 01:35 43.63184 -70.11658 2406 ft 163 kts 278°
2026-05-08 01:36 43.63294 -70.13183 2226 ft 155 kts 278°
2026-05-08 01:36 43.63390 -70.14619 2066 ft 145 kts 277°
2026-05-08 01:36 43.63477 -70.15953 1916 ft 134 kts 277°
2026-05-08 01:36 43.63558 -70.17183 1855 ft 126 kts 278°
2026-05-08 01:37 43.63638 -70.18406 1710 ft 130 kts 277°
2026-05-08 01:37 43.63713 -70.19595 1539 ft 119 kts 277°
2026-05-08 01:37 43.63787 -70.20704 1369 ft 114 kts 277°
2026-05-08 01:37 43.63862 -70.21825 1228 ft 120 kts 278°
2026-05-08 01:38 43.63938 -70.22971 1060 ft 119 kts 277°
2026-05-08 01:38 43.64014 -70.24103 909 ft 118 kts 277°
2026-05-08 01:38 43.64090 -70.25241 750 ft 119 kts 277°
2026-05-08 01:38 43.64167 -70.26377 588 ft 118 kts 277°
2026-05-08 01:39 43.64243 -70.27504 433 ft 118 kts 277°
2026-05-08 01:39 43.64320 -70.28634 280 ft 118 kts 277°
2026-05-08 01:39 43.64397 -70.29765 146 ft 118 kts 276°
2026-05-08 01:39 43.64464 -70.30898 67 ft 117 kts 276°
2026-05-08 01:40 43.64529 -70.31749 75 ft 58 kts 276°
2026-05-08 01:40 43.64545 -70.32000 72 ft 0 kts 275°
2026-05-08 01:40 43.64553 -70.32050 83 ft 13 kts 292°
2026-05-08 01:40 43.64605 -70.32085 90 ft 9 kts
2026-05-08 01:41 43.64657 -70.32042 76 ft 10 kts 76°
2026-05-08 01:41 43.64657 -70.32030 78 ft 0 kts 88°
2026-05-08 01:42 43.64657 -70.32025 71 ft 1 kts 88°
2026-05-08 01:42 43.64657 -70.32013 70 ft 3 kts 91°
2026-05-08 01:42 43.64655 -70.31962 71 ft 7 kts 95°
2026-05-08 01:42 43.64650 -70.31891 76 ft 8 kts 96°
2026-05-08 01:43 43.64644 -70.31813 68 ft 8 kts 95°
2026-05-08 01:43 43.64639 -70.31728 67 ft 9 kts 95°
2026-05-08 01:43 43.64633 -70.31638 67 ft 10 kts 96°
2026-05-08 01:43 43.64632 -70.31625 71 ft 1 kts 95°
2026-05-08 01:44 43.64631 -70.31617 73 ft 1 kts 95°
2026-05-08 01:44 43.64630 -70.31602 73 ft 2 kts 96°
2026-05-08 01:44 43.64628 -70.31581 63 ft 3 kts 96°
2026-05-08 01:44 43.64627 -70.31566 72 ft 0 kts 95°
2026-05-08 01:45 43.64627 -70.31553 69 ft 7 kts 95°
2026-05-08 01:45 43.64620 -70.31458 66 ft 8 kts 94°
2026-05-08 01:45 43.64624 -70.31383 68 ft 8 kts 71°
2026-05-08 01:45 43.64657 -70.31324 66 ft 7 kts 38°
2026-05-08 01:46 43.64687 -70.31287 69 ft 5 kts 49°
2026-05-08 01:46 43.64705 -70.31255 67 ft 0 kts 49°
2026-05-08 01:46 43.64706 -70.31255 66 ft 0 kts 49°
2026-05-08 01:47 43.64705 -70.31255 69 ft 0 kts 49°